Regional Weather Roundup
Issued by NWS

Home | Current Version | Previous Version | Text Only | Print | Product List | Glossary Off
Versions: 1 2 3 4 5 6 7 8 9 10 11 12 13 14 15 16 17 18 19 20 21 22 23 24 25 26 27 28 29 30 31 32 33 34 35 36 37 38 39 40 41 42 43 44 45 46 47 48 49 50

000
ASUS43 KMKX 301514
RWRWI

WISCONSIN REGIONAL WEATHER ROUNDUP
NATIONAL WEATHER SERVICE MILWAUKEE/SULLIVAN WI
1000 AM CDT SAT MAY 30 2015

NOTE: "FAIR" INDICATES FEW OR NO CLOUDS BELOW 12,000 FEET WITH NO
SIGNIFICANT WEATHER AND/OR OBSTRUCTIONS TO VISIBILITY.

WIZ001-002-006>008-014>016-023>028-301600-
NORTHWEST WISCONSIN

CITY           SKY/WX    TMP DP  RH WIND       PRES   REMARKS
SUPERIOR ARPT  SUNNY     50  36  59 NE10      30.28R
ASHLAND        CLOUDY    48  39  71 NE13G21   30.27R
HAYWARD        CLOUDY    50  41  71 NE14      30.23R
SIREN          CLOUDY    52  40  63 NE9G17    30.24R
CUMBERLAND     CLOUDY    50  41  71 NE12      30.21R
RICE LAKE      CLOUDY    51  42  73 N15       30.21R
CHETEK         CLOUDY    51  44  79 N9        30.20R
LADYSMITH      CLOUDY    51  45  80 N15       30.20R
EAU CLAIRE     CLOUDY    54  45  71 N9        30.16R
MENOMONIE      CLOUDY    53  45  76 N10       30.19R
NEW RICHMOND   CLOUDY    51  42  72 N13       30.22R
OSCEOLA        CLOUDY    51  41  70 N9G16     30.25R
$$

WIZ003>005-009-010-017-018-301600-
NORTH CENTRAL WISCONSIN

CITY           SKY/WX    TMP DP  RH WIND       PRES   REMARKS
MANITOWISH WTR CLOUDY    47  45  93 N12G17    30.19R
ARBOR VITAE    CLOUDY    52  48  86 NE9       30.17R
WOODRUFF       CLOUDY    52  48  86 NE9       30.17R
RHINELANDER    CLOUDY    50  44  80 NE10G16   30.16R
EAGLE RIVER    CLOUDY    50  44  80 NE9       30.16R
LAND O LAKES   CLOUDY    46  43  90 NE12      30.19R
PHILLIPS       CLOUDY    49  44  82 N16       30.17R
TOMAHAWK       CLOUDY    51  48  90 N7        30.16R FOG
MEDFORD        CLOUDY    52  47  83 N10G16    30.15R
MERRILL        CLOUDY    54  47  79 NE9       30.14R
$$

WIZ029-030-035-036-043>047-301600-
CENTRAL WISCONSIN

CITY           SKY/WX    TMP DP  RH WIND       PRES   REMARKS
WAUSAU         CLOUDY    54  47  77 N12       30.12R
MOSINEE        CLOUDY    54  52  94 NE14      30.13R
MARSHFIELD     CLOUDY    55  49  80 N8        30.13R
STEVENS POINT  LGT RAIN  52  50  93 NE9       30.13R
WAUPACA        CLOUDY    54  49  81 NE12G22   30.12R
WAUTOMA        LGT RAIN  53  52  97 NE13      30.11R FOG
WISC RAPIDS    RAIN      55  50  83 NE9       30.13R
CAMP DOUGLAS   DRIZZLE   55  55 100 VRB6      30.10R
$$

WIZ011>013-019>022-031-037>040-048>050-301600-
NORTHEAST WISCONSIN

CITY           SKY/WX    TMP DP  RH WIND       PRES   REMARKS
ANTIGO         CLOUDY    51  46  81 N12       30.14R
SHAWANO        CLOUDY    54  48  79 NE12G20   30.13R
OCONTO         CLOUDY    50  47  89 N10       30.12R
STURGEON BAY   CLOUDY    48  43  81 N15       30.14R
GREEN BAY      LGT RAIN  53  49  86 NE12G21   30.11R FOG
MANITOWOC      RAIN      49  48  97 NE12G18   30.10R
APPLETON       LGT RAIN  52  48  87 NE12G17   30.10R
CLINTONVILLE   LGT RAIN  50  46  87 NE6       30.12R
OSHKOSH        LGT RAIN  52  49  89 NE14G21   30.10R FOG
$$

WIZ032>034-041-042-053>061-301600-
SOUTHWEST WISCONSIN

CITY           SKY/WX    TMP DP  RH WIND       PRES   REMARKS
LA CROSSE      CLOUDY    57  51  80 N12       30.11R
SPARTA         CLOUDY    55  53  94 N6        30.11R
VIROQUA        CLOUDY    55  55 100 NE14      30.09R
BOSCOBEL       LGT RAIN  59  56  89 N7        30.05R
PRAIRIE DU CHI DRIZZLE   58  55  89 N5        30.05R
PLATTEVILLE    CLOUDY    60  58  95 N18       30.01R
$$

WIZ056-057-062-063-064-067-068-301600-
SOUTH CENTRAL WISCONSIN

CITY           SKY/WX    TMP DP  RH WIND       PRES   REMARKS
REEDSBURG      DRIZZLE   52  51  96 N10       30.08R
BARABOO/DELLS  LGT RAIN  52  50  93 NE13G24   30.08R
LONE ROCK      LGT RAIN  57  53  86 NE13G22   30.06R FOG
MINERAL POINT  CLOUDY    59  55  88 NE18G25   30.02R
MADISON        LGT RAIN  56  53  90 NE21G26   30.04R FOG
MIDDLETON      CLOUDY    58  56  94 NE20G26   30.04R
WATERTOWN      DRIZZLE  N/A N/A N/A NE10G17   30.05R
MONROE         CLOUDY    66  63  88 N16       29.98R
JANESVILLE     CLOUDY    70  66  88 SW6       29.97R
$$

WIZ051-052-058>065-066-070>072-301600-
SOUTHEAST WISCONSIN

CITY           SKY/WX    TMP DP  RH WIND       PRES   REMARKS
MILWAUKEE      DRIZZLE   49  47  93 N15G28    30.05R
WAUKESHA       CLOUDY    50  48  93 NE13G23   30.05R
MILWAUKEE/TIMM CLOUDY    52  46  82 N17G26    30.06R
RACINE         CLOUDY    50  47  89 N17G29    30.05R
BURLINGTON     CLOUDY    51  50  97 NE12G17   30.04R
KENOSHA        CLOUDY    52  50  93 NE16      30.03R
FOND DU LAC    LGT RAIN  51  49  92 NE20G25   30.10R
SHEBOYGAN      LGT RAIN  49  46  90 N18G32    30.08R FOG
WEST BEND      LGT RAIN  50  46  87 N13G22    30.07R
JUNEAU         RAIN      52  50  93 NE12G20   30.07R
$$

LSZ147-162-301600-
LAKE SUPERIOR

STATION/POSITION TIME  TEMP    WIND        PRES    WAVE
                       AIR SEA DIR/SP/G            HT/PER
                 (UTC) (F)     (DEG/KT/KT) (MB)    (FT/S)
W MID LAKE BUOY  1450   39 37   20/ 12/ 14   N/A     2/ 4
DEVILS ISLAND    1500   41      30/  7/  8   N/A
PORT WING        1400   46      40/  8/ 12   N/A
SAXON HARBOR     1440   45      40/  9/ 12   N/A
$$

LMZ867-665-643>646-301600-
LAKE MICHIGAN

STATION/POSITION TIME  TEMP    WIND        PRES    WAVE
                       AIR SEA DIR/SP/G            HT/PER
                 (UTC) (F)     (DEG/KT/KT) (MB)    (FT/S)
CHAMBERS ISLAND  1400   50     350/ 16/ 19   N/A
N MID LAKE BUOY  1450   40 37  330/  6/  6   N/A     2/ 4
NORTHPORT PIER   1400   49     350/ 17/ 19   N/A
SISTER BAY       1403   49     360/ 14/ 18   N/A
ALGOMA LAKESHORE 1408           40/  9/ 15   N/A
KEWAUNEE LAKESHO 1400   47      30/  4/  8   N/A
SHEBOYGAN LAKESH 1500   45     360/ 22/ 25   N/A
PORT WASHINGTON  1400   51      10/  9/ 20   N/A
ATWATER BUOY     1400   51      30/ 21/ 25   N/A
MILWAUKEE LAKESH 1400   50      20/ 19/ 26   N/A
S MID LAKE BUOY  1450   41 38  350/  8/ 10   N/A     0
KENOSHA   LAKESH 1500   48      10/ 22/ 27   N/A
$$

TC  - TEMPERATURE IN CELSIUS
VSB - VISIBILITY IN STATUTE MILES
WCI - WIND CHILL INDEX
HX  - HEAT INDEX




USA.gov is the U.S. government's official web portal to all federal, state and local government web resources and services.